Dewpoint
58 58 57 57 57 57 57 57 57 57 58 58 58 58 58 58 58 59 59 59 59 59 59 58 58 58 58 58 58 58 58 58 58 58 58 58 57 57 57 57 57 57 57 58 59 59 59 58 51 43 40 40 40 41 42 45 45 44 43 46 48 50 52 57 60 60 60 60 60 60 60 60 59 59 59 58 58 58 58 57 57 57 56 56 56 56 56 56 56 57 57 58 59 59 60 59 59 59 59 59 58 58 58
58 58 58 57 57 57 57 57 58 58 58 59 59 59 59 59 59 59 59 59 59 59 59 59 59 59 59 58 58 58 58 58 58 58 58 58 58 58 58 57 58 58 58 58 59 59 59 58 52 46 44 43 43 43 43 45 46 45 45 47 49 51 53 56 59 60 60 60 60 60 60 60 60 59 59 59 59 59 59 58 58 58 57 57 57 56 56 56 56 56 56 57 57 58 59 59 59 59 59 58 58 58 58
59 58 58 57 57 57 58 58 58 59 59 59 59 59 59 59 59 60 60 60 60 60 60 60 60 59 59 58 58 58 58 58 58 58 58 58 58 58 58 58 58 58 58 58 59 59 59 58 53 47 44 44 44 44 45 46 46 45 46 49 50 51 53 56 58 59 60 60 60 60 60 60 60 59 59 59 59 59 59 59 59 59 58 58 58 57 57 57 56 56 56 56 56 57 57 58 58 58 58 58 58 58 58
59 58 58 58 58 58 58 59 59 59 59 59 59 59 60 60 60 60 60 60 60 60 60 60 60 60 59 58 58 58 58 58 58 58 58 58 58 58 58 58 58 58 58 58 58 58 58 57 54 51 46 45 45 45 46 47 47 46 46 49 51 53 54 56 57 58 59 59 59 59 59 59 59 59 59 59 59 59 59 59 59 59 59 59 59 58 58 58 57 57 57 57 56 56 56 57 57 57 58 58 58 58 58
59 59 59 58 58 59 59 59 59 59 59 59 60 60 60 60 60 60 60 60 60 60 60 60 60 59 58 58 58 58 58 58 58 58 58 58 58 58 58 58 58 58 58 58 58 58 56 56 55 52 48 47 46 46 46 48 48 47 46 49 51 54 56 56 57 58 59 59 59 59 59 59 59 59 59 59 59 59 59 59 59 59 59 59 59 59 59 59 58 58 58 57 57 57 57 56 56 56 57 57 57 58 58
59 59 59 59 59 59 59 59 59 59 59 60 60 60 60 60 60 60 60 60 60 60 60 60 60 59 58 58 58 58 58 58 58 58 58 58 58 58 58 58 58 58 58 58 58 57 57 56 54 51 50 48 47 47 47 48 48 47 47 49 53 55 56 56 57 58 58 59 59 59 59 59 59 59 58 58 59 59 59 59 59 59 59 59 59 59 59 59 59 59 59 58 58 58 57 57 57 56 56 57 57 57 57
59 59 59 59 59 59 59 59 59 59 60 60 60 60 60 60 60 60 60 60 60 60 60 60 59 58 58 58 58 58 58 58 58 58 57 57 58 58 58 57 57 57 57 57 57 57 57 56 55 53 51 49 48 47 47 49 49 49 48 51 54 56 56 57 57 58 58 59 59 59 59 59 59 59 59 58 58 58 59 59 59 59 59 59 59 59 59 59 59 59 59 59 59 58 58 58 58 57 57 57 57 57 57
59 59 59 59 59 59 59 59 59 59 59 60 60 60 60 60 60 60 60 60 60 60 60 59 59 58 58 58 57 57 57 57 57 57 57 57 57 57 57 57 57 57 57 57 57 57 58 57 55 54 51 50 49 48 48 48 48 49 50 54 55 56 56 57 57 58 58 59 59 59 59 59 59 59 59 58 58 58 58 59 59 59 59 59 59 59 59 59 59 59 59 59 59 59 59 58 58 58 58 57 57 57 57
59 59 59 59 59 59 59 59 59 59 59 60 60 60 60 60 60 60 60 60 60 60 60 59 59 59 58 58 57 57 57 56 56 56 56 56 56 56 56 56 56 57 57 57 57 57 58 57 56 54 52 50 49 50 51 49 48 50 51 55 56 56 56 57 57 58 58 59 59 59 59 59 59 59 59 59 58 58 58 58 59 59 59 59 59 59 59 59 59 59 59 59 59 59 59 59 59 59 58 58 58 58 58
59 59 59 59 59 59 59 59 59 59 59 59 59 59 59 60 60 60 60 59 59 59 59 59 59 59 59 58 58 57 56 56 56 55 55 55 55 56 56 56 56 57 57 57 57 57 58 57 56 55 52 50 49 50 52 50 50 51 52 55 56 55 56 57 57 58 58 58 59 59 59 59 59 59 59 59 59 59 59 59 59 59 58 59 59 59 59 59 59 59 59 59 59 59 59 59 59 59 59 59 59 59 59
59 59 59 59 59 59 59 59 59 60 60 60 59 59 59 59 59 59 59 59 59 59 59 59 59 59 59 59 58 58 57 56 56 55 55 55 55 55 56 56 56 57 57 57 57 58 58 57 56 55 52 50 50 51 50 50 51 51 52 54 55 55 56 57 57 58 58 58 58 58 59 59 59 59 59 59 59 59 59 59 59 58 58 58 58 58 58 58 59 59 59 59 59 59 59 59 59 59 59 59 59 59 59
59 59 59 59 59 59 59 60 60 60 60 60 60 59 59 59 59 59 59 59 59 59 59 59 60 60 59 59 59 58 58 57 57 56 56 56 56 56 56 56 56 57 57 57 58 58 58 57 55 53 50 49 49 51 50 50 50 51 53 54 55 55 56 56 57 57 58 58 58 58 58 58 58 58 59 59 59 59 59 59 58 58 58 58 58 58 58 58 58 58 58 58 59 59 59 59 59 59 59 59 59 59 59
59 59 59 59 59 59 59 60 60 60 60 60 60 60 59 59 59 59 59 59 59 59 59 59 60 60 59 59 59 59 58 58 58 57 57 56 56 56 56 56 57 57 57 57 58 57 56 55 53 51 48 49 50 51 52 51 51 52 54 55 55 55 56 56 57 57 58 58 58 58 58 58 58 58 58 58 58 58 58 58 58 58 58 58 58 58 58 58 58 58 58 58 58 58 59 59 59 59 59 59 59 59 59
60 60 59 59 59 59 59 59 59 59 60 60 60 60 60 59 59 58 58 58 58 59 59 59 59 59 59 59 59 59 59 59 59 59 58 58 57 57 57 57 57 57 57 58 57 56 55 54 51 49 48 49 50 51 53 51 52 54 55 55 55 55 55 56 56 57 57 57 58 58 58 58 58 58 58 58 58 58 58 58 58 58 58 58 58 58 58 58 58 58 58 58 58 58 58 59 59 59 59 59 59 59 59
60 60 60 60 60 59 59 59 59 59 59 59 60 60 60 59 59 59 58 58 58 58 59 59 59 59 59 59 59 59 59 59 59 59 59 59 58 58 57 57 58 58 58 58 56 55 53 51 50 49 49 50 50 51 52 51 52 54 55 55 55 55 55 56 56 56 57 57 57 57 57 57 57 57 57 57 57 57 57 57 57 57 58 58 58 58 58 58 58 58 58 58 58 58 58 58 58 58 58 59 59 59 59
60 60 60 61 60 59 59 59 59 59 59 60 60 60 60 60 59 59 58 58 58 58 58 59 59 59 59 59 59 59 59 60 60 60 60 60 59 59 58 58 58 59 59 57 55 53 51 49 48 48 50 49 49 50 50 51 53 55 55 55 55 55 55 55 56 56 56 57 57 57 57 57 57 57 57 57 57 57 57 57 57 57 57 57 58 58 58 58 58 58 58 58 58 58 58 58 58 58 58 59 59 59 59
61 61 62 62 61 60 60 60 60 60 60 60 60 60 60 60 60 60 59 59 59 59 59 59 59 59 59 59 59 59 58 59 59 59 60 60 60 59 59 59 59 59 58 55 53 51 48 47 47 48 49 48 48 48 49 50 52 55 55 55 55 55 55 55 55 55 56 56 56 56 56 56 56 57 57 57 57 57 57 57 57 57 57 57 57 57 58 58 58 58 58 58 58 58 58 58 58 58 58 59 59 59 59
62 62 62 62 62 61 61 61 61 60 60 60 60 60 60 60 60 60 60 60 60 59 59 59 59 59 59 59 59 59 58 56 55 55 57 60 60 60 60 60 59 58 56 53 50 48 46 46 47 48 48 48 47 48 50 50 53 55 54 54 55 55 55 55 55 55 55 56 56 56 56 56 56 56 56 56 56 56 56 56 56 56 56 57 57 57 57 57 57 58 58 58 58 58 58 58 59 59 59 59 59 59 59
62 63 63 63 63 63 62 62 62 61 61 61 61 61 61 61 61 61 60 60 60 60 60 60 60 60 60 59 60 59 57 54 51 51 52 54 57 60 60 59 57 55 51 49 47 46 46 46 47 48 48 48 47 48 49 51 53 55 54 54 54 54 54 54 55 55 55 55 55 55 55 55 56 56 56 56 56 56 56 56 56 56 57 57 57 57 57 57 57 57 58 58 58 58 58 58 59 59 59 59 59 59 59
61 62 63 63 63 63 63 63 63 62 62 62 62 62 62 61 61 61 61 61 61 60 60 60 60 60 60 60 58 56 53 51 50 49 49 49 51 54 55 54 51 49 48 47 47 46 47 47 48 48 48 47 47 47 48 51 53 54 53 53 54 54 54 54 54 55 55 55 55 55 55 55 55 55 55 56 56 56 56 56 56 57 57 57 57 57 57 57 57 57 58 58 58 58 58 58 59 59 59 59 59 59 59
58 59 61 62 63 63 63 62 62 62 62 62 62 61 60 61 62 62 62 61 61 61 61 61 61 60 59 57 55 51 49 48 48 48 48 48 47 48 50 49 48 48 48 47 47 47 47 48 48 48 48 47 47 46 46 51 54 54 53 53 53 54 54 54 54 54 55 55 55 55 55 55 55 55 55 55 56 56 56 56 56 56 57 57 57 57 57 57 57 57 58 58 58 58 58 58 58 59 59 59 59 59 59
55 56 58 60 60 60 60 60 60 60 60 61 61 60 57 58 60 62 62 61 59 58 57 58 57 56 54 51 49 47 46 46 46 46 47 47 47 47 47 47 47 47 47 46 46 47 48 48 48 48 47 47 46 46 45 51 54 54 52 53 53 53 53 53 54 54 54 54 55 55 55 55 55 55 55 55 55 55 56 56 56 56 56 57 57 57 57 57 57 57 57 58 58 58 58 58 58 59 59 59 59 59 59
53 55 56 57 58 58 59 58 57 56 56 60 59 56 54 53 55 58 60 57 54 51 51 51 51 50 49 47 46 45 45 45 46 46 45 46 46 46 46 46 45 45 45 45 46 46 47 48 48 47 46 46 46 45 45 50 53 53 52 52 53 53 53 53 53 53 54 54 54 54 54 54 54 55 55 55 55 55 55 55 56 56 56 56 56 56 57 57 57 57 57 57 58 58 58 58 58 58 58 59 59 59 59
54 55 56 57 57 58 58 57 56 55 55 56 55 54 52 51 51 51 51 51 50 49 48 47 47 46 46 45 44 43 43 44 45 45 43 43 43 44 44 43 42 42 42 42 43 45 46 46 47 46 46 45 44 44 46 49 52 53 52 52 52 52 52 52 53 53 53 53 53 54 54 54 54 54 55 55 55 55 55 55 55 55 55 56 56 56 56 56 56 57 57 57 57 57 57 58 58 58 58 58 58 58 58
55 56 57 58 58 58 58 58 57 56 56 55 54 53 52 50 49 49 49 50 49 49 48 46 46 46 45 44 43 42 42 43 42 42 41 41 41 41 42 41 41 41 40 40 42 43 44 45 45 45 44 43 42 43 45 47 51 54 52 52 52 52 52 52 52 52 53 53 53 53 53 54 54 54 55 55 55 55 55 55 55 55 55 55 55 55 55 55 56 56 56 56 56 57 57 57 57 57 57 58 58 58 58
56 57 58 59 59 59 59 58 57 56 55 54 54 53 51 50 49 49 49 49 49 48 47 46 45 44 44 44 43 42 41 42 41 40 39 39 40 40 40 40 40 39 38 38 40 42 43 43 43 42 42 41 41 41 43 46 51 53 52 52 51 51 51 51 51 52 52 53 53 53 53 54 54 54 54 55 55 55 55 55 55 55 55 55 55 55 55 55 55 55 55 56 56 56 56 56 57 57 57 57 57 58 58
58 59 60 60 60 59 59 58 57 55 54 54 54 53 51 50 49 49 48 48 47 47 46 44 44 44 44 44 43 42 41 41 40 39 38 39 39 40 39 39 39 38 37 37 38 39 40 40 40 39 38 38 38 39 40 46 50 52 52 51 51 51 51 51 51 51 52 53 53 53 53 53 54 54 54 55 55 55 55 55 55 55 55 55 55 55 55 55 55 55 55 55 56 56 56 56 56 57 57 57 57 57 57
59 59 59 59 59 59 59 57 55 55 54 53 53 53 51 49 48 48 48 47 46 46 45 43 43 44 44 44 43 42 41 40 39 38 37 39 39 39 38 38 37 37 36 36 36 36 36 37 37 36 36 36 37 37 38 43 47 51 52 51 51 50 50 50 51 51 51 52 53 53 53 53 53 54 54 54 54 55 55 55 55 55 55 55 55 55 55 55 55 55 55 55 55 55 56 56 56 56 57 57 57 57 56
59 59 58 58 59 58 56 55 54 53 53 52 52 51 50 49 49 48 47 46 46 45 43 42 42 42 42 43 42 41 41 41 40 38 37 39 39 38 37 37 36 35 35 35 35 35 35 36 36 36 36 36 37 37 37 41 46 50 52 51 51 50 49 49 50 51 51 52 52 53 53 53 53 53 53 53 54 54 55 55 55 55 55 55 55 55 55 55 55 55 55 55 55 55 55 56 56 56 56 56 56 56 56
57 57 57 57 56 55 54 53 53 52 53 52 51 51 50 49 48 47 46 46 44 43 41 40 39 39 40 41 40 39 42 42 41 39 38 37 37 37 37 36 35 34 33 34 35 36 36 36 36 37 37 37 36 36 36 39 43 48 53 51 50 49 49 49 49 50 51 51 51 51 52 52 52 52 53 53 53 54 54 54 55 55 55 55 55 55 55 55 55 55 55 55 55 55 55 55 56 56 56 56 56 56 56
56 56 56 55 53 52 52 51 51 52 52 51 51 50 50 48 47 46 46 44 43 42 40 39 39 39 40 40 39 39 42 42 42 40 38 37 37 37 37 37 35 34 33 35 36 37 37 37 36 36 37 36 36 36 35 37 42 48 53 51 49 48 48 48 48 48 49 49 50 50 51 51 52 52 52 52 53 53 53 54 54 55 55 55 55 54 54 55 55 55 55 55 55 55 55 55 55 56 56 56 56 56 56
55 55 54 52 52 52 51 51 51 51 51 51 51 50 49 48 46 45 44 43 42 42 41 40 39 39 40 39 40 40 41 42 41 40 38 38 37 37 38 37 36 34 34 35 36 36 36 36 36 36 35 34 34 34 34 36 40 46 52 51 49 48 47 47 47 47 47 48 48 49 50 50 51 51 52 52 52 52 53 53 54 54 54 54 54 54 54 54 55 55 55 55 55 55 55 55 55 55 55 55 55 55 55
55 54 52 51 51 51 51 51 51 51 51 50 50 49 48 47 45 44 42 41 41 41 40 39 39 39 38 39 40 41 42 41 40 39 38 38 37 37 37 36 35 35 35 35 35 34 34 35 35 34 33 33 33 33 33 35 38 43 52 51 50 48 47 46 46 46 46 46 47 48 49 49 50 51 51 51 51 52 52 52 53 53 53 53 53 53 53 54 54 54 55 55 55 54 54 54 55 55 55 55 55 55 55
54 53 51 51 51 51 51 51 51 51 50 50 49 48 46 44 42 41 39 39 39 39 38 37 37 37 38 39 39 40 42 40 39 38 37 37 37 36 35 35 35 36 36 35 34 33 33 33 33 33 33 32 32 32 32 35 38 42 46 48 49 49 47 46 46 46 46 46 46 47 48 48 49 50 50 51 51 51 51 52 52 52 52 52 52 52 52 52 53 53 54 54 54 54 54 54 54 54 54 54 54 55 55
52 51 51 51 51 51 50 50 51 50 49 49 47 46 44 42 40 39 37 37 37 36 35 36 36 37 38 38 38 38 38 37 37 37 37 35 35 35 35 35 35 35 35 34 34 33 34 34 33 33 33 33 32 32 33 36 39 42 42 45 47 48 48 47 47 46 46 46 46 46 47 47 48 48 49 49 50 51 51 51 51 51 51 51 51 51 51 51 52 52 53 53 53 54 54 54 54 54 54 54 54 54 54
52 51 50 50 50 51 51 50 50 49 48 47 46 44 42 40 39 39 39 39 38 36 36 37 37 38 39 39 39 38 38 38 38 38 37 36 36 35 35 34 33 33 35 34 34 35 34 34 34 33 33 32 32 33 34 37 39 41 42 42 45 47 48 48 48 48 47 46 46 46 46 47 47 47 48 48 49 49 50 50 50 50 51 51 51 50 51 51 51 51 52 52 53 53 53 53 53 53 53 53 53 53 54
52 51 51 50 50 50 51 50 49 48 46 46 44 42 41 40 39 39 39 38 37 37 38 38 39 40 41 41 40 39 39 39 39 39 38 37 37 36 34 33 33 33 34 35 36 37 35 34 33 33 32 32 33 33 34 37 37 38 41 43 44 45 46 46 47 49 49 47 46 46 46 46 46 47 47 48 48 49 49 49 49 50 50 50 50 50 50 50 50 51 51 51 52 52 52 52 52 52 52 52 52 52 53
52 51 51 50 49 50 50 49 48 47 46 44 42 41 40 40 39 39 39 38 38 38 39 39 40 40 40 40 39 39 38 38 38 37 37 37 35 34 33 33 33 34 34 35 36 36 34 33 33 32 32 32 33 33 35 37 37 37 39 41 42 43 44 44 44 45 48 47 47 46 46 46 46 47 47 48 48 49 49 49 49 50 50 50 49 49 50 50 50 50 51 51 51 51 51 51 51 51 52 52 52 52 51
51 51 51 50 49 49 50 49 47 46 44 42 41 40 39 40 39 39 38 38 39 40 39 39 39 39 38 38 37 37 38 37 37 37 36 34 33 32 32 34 34 34 35 35 35 35 33 33 32 31 31 32 33 34 35 36 36 36 37 39 40 42 42 40 38 39 42 43 45 46 46 46 46 47 47 47 48 48 49 49 49 50 50 50 50 49 50 49 50 50 50 51 51 51 51 51 51 51 51 51 51 51 51
51 51 51 50 49 50 49 48 46 44 42 41 40 39 38 39 38 37 38 37 39 41 40 40 39 38 37 37 37 37 37 37 36 35 34 33 31 31 31 33 34 35 35 36 36 35 33 32 31 30 31 33 34 35 36 36 36 37 37 37 38 38 39 39 38 38 39 40 42 43 46 46 46 47 47 47 48 48 48 49 49 49 49 49 49 49 50 50 50 50 50 51 51 51 51 51 51 51 51 51 51 51 51
51 51 51 50 50 49 48 46 44 42 41 40 40 39 39 38 37 37 37 36 38 40 40 40 40 39 37 37 37 37 36 37 35 34 33 32 31 30 31 33 34 35 35 36 36 34 33 32 31 31 32 33 34 35 36 36 37 37 37 37 37 37 39 40 40 39 38 39 40 42 46 46 46 46 47 47 47 48 48 48 49 49 49 49 49 49 49 50 50 50 51 51 51 51 51 51 51 51 51 50 50 50 50
51 51 51 50 49 48 46 44 42 41 41 40 40 40 39 38 38 38 38 37 38 40 42 42 41 40 39 39 38 37 36 36 35 34 33 31 30 30 30 32 33 34 35 36 35 34 33 32 32 32 33 34 34 35 35 36 36 37 37 37 37 37 40 41 41 40 40 41 41 42 43 46 47 46 46 46 47 47 47 48 48 48 48 48 48 49 49 49 50 50 50 50 50 50 51 51 51 51 50 50 50 50 50
51 51 50 50 49 47 45 43 42 42 42 41 41 40 39 39 39 40 41 40 40 41 42 42 42 42 41 40 39 38 37 36 35 34 33 32 31 30 30 32 33 34 35 34 34 33 33 33 33 34 36 36 35 35 35 35 36 37 37 37 37 37 40 41 41 41 42 42 42 42 42 44 46 47 46 46 46 46 46 46 46 47 47 48 48 48 48 49 49 49 50 49 50 50 50 50 50 51 50 50 50 50 50
51 51 50 49 48 46 45 44 43 43 43 42 41 41 39 39 40 41 42 42 42 42 42 42 42 42 42 40 39 38 38 37 36 34 33 31 31 30 31 32 33 33 33 33 33 33 33 33 33 35 37 37 36 35 35 35 36 36 36 36 35 36 39 40 40 41 42 42 42 42 42 42 43 45 46 46 46 46 46 46 45 45 45 45 46 46 46 47 47 48 48 48 49 49 49 49 50 50 50 50 50 50 50
51 50 49 48 47 45 44 44 44 44 44 43 42 41 39 40 41 42 42 43 43 42 40 41 41 41 41 39 38 37 38 37 36 34 33 32 31 31 31 32 32 32 30 30 31 32 33 33 33 34 35 36 36 36 36 36 35 34 33 32 32 33 38 38 39 40 40 41 42 42 41 41 41 41 42 43 43 43 44 44 44 43 42 43 44 44 45 45 46 46 46 47 47 48 48 48 49 49 49 49 49 50 50
50 49 48 47 46 44 43 44 44 45 44 43 42 42 41 41 41 42 42 42 41 41 40 40 39 40 40 38 37 37 37 36 35 35 34 33 32 32 33 31 30 29 28 28 30 31 32 33 33 33 33 35 36 36 36 36 35 33 31 29 29 32 36 37 38 39 39 40 41 41 40 39 38 37 37 38 37 37 39 42 43 43 42 42 42 43 44 44 44 45 45 46 46 47 47 48 48 48 49 49 49 49 49
50 48 47 46 45 44 43 44 45 45 44 43 43 42 40 41 41 41 40 39 39 39 40 39 39 39 39 39 37 36 36 36 35 35 34 33 33 32 33 30 29 28 28 28 29 30 33 33 32 32 32 34 35 35 34 34 34 33 30 29 30 32 35 37 37 38 39 39 38 37 38 37 37 37 37 37 36 36 37 39 42 43 42 42 42 42 43 43 43 44 44 45 46 46 46 47 47 48 48 48 48 48 48
49 48 46 45 44 43 43 44 45 45 44 44 43 42 40 40 40 40 40 40 40 39 40 41 40 39 38 38 37 36 37 36 36 35 34 33 31 30 29 28 27 27 27 28 28 30 35 32 30 31 31 32 33 33 33 32 32 31 31 31 31 31 32 34 35 37 37 36 35 35 37 37 37 36 36 36 36 35 35 36 39 42 43 43 43 42 42 42 42 43 43 44 45 45 46 46 47 47 47 47 48 48 48
49 48 46 44 43 43 43 44 45 45 45 44 43 42 41 41 40 40 40 41 41 41 41 41 40 38 37 36 36 36 37 37 36 35 34 31 28 27 27 26 25 24 25 26 28 31 37 31 30 30 31 31 32 33 33 33 32 31 31 31 30 30 29 30 31 33 34 34 34 35 36 36 36 36 35 35 35 34 34 35 36 38 41 42 43 43 42 43 43 43 42 43 44 45 46 46 46 47 47 47 47 47 48
48 46 45 44 43 43 43 44 45 45 45 45 43 42 42 42 42 41 39 40 40 40 40 39 38 37 35 34 34 35 38 37 36 34 33 31 28 26 24 24 24 24 24 24 26 30 34 31 29 30 30 31 32 32 31 32 31 30 31 30 30 30 29 29 29 31 32 34 35 36 36 36 35 35 34 34 34 34 34 35 35 36 38 39 41 42 42 43 44 43 43 43 43 44 45 46 46 46 47 47 47 47 48
47 46 44 44 43 43 43 44 44 45 45 44 43 42 42 42 42 41 39 38 38 39 39 37 37 36 35 33 33 34 37 38 36 33 32 31 30 28 26 24 24 22 21 21 25 31 35 32 30 29 30 29 28 26 26 28 29 29 30 31 31 31 29 30 30 30 32 33 34 35 35 34 34 33 33 33 33 33 33 34 34 34 35 35 36 37 39 41 42 43 43 42 42 43 43 44 45 46 46 47 47 47 47
46 45 44 43 43 43 44 44 45 45 45 43 42 42 42 42 41 41 40 38 38 39 39 37 36 36 36 34 33 33 34 38 37 35 33 32 31 30 28 27 23 19 17 18 21 28 37 34 33 31 28 22 21 22 23 28 28 28 29 31 31 30 30 30 30 31 31 31 32 33 33 33 33 32 32 32 32 33 33 33 33 34 34 34 36 37 38 41 42 43 42 42 42 42 42 43 44 45 46 46 46 47 47
46 45 44 43 43 44 45 45 44 44 44 42 42 41 42 42 41 41 40 40 39 39 40 37 36 34 34 33 31 30 29 37 38 37 36 33 32 30 28 25 22 20 20 17 16 17 23 24 23 22 20 20 21 23 24 26 27 28 29 28 29 30 30 31 31 31 32 30 30 31 32 32 32 31 31 32 32 33 33 33 33 33 33 33 34 36 36 39 41 42 41 41 41 41 41 42 42 43 45 45 46 46 47
45 44 43 43 44 44 45 44 44 43 43 43 42 42 41 40 39 38 38 38 38 38 37 37 35 33 33 31 30 29 28 33 37 38 37 35 32 29 28 27 25 24 24 20 14 10 9 14 17 19 22 24 24 24 24 25 25 25 28 28 28 29 29 29 30 31 30 29 30 30 30 31 32 32 31 31 32 33 33 33 33 33 33 33 34 34 34 38 41 42 42 42 41 41 40 41 42 42 44 44 45 46 46
44 43 43 43 44 44 44 44 44 44 44 44 43 42 40 38 37 37 36 36 36 36 35 35 35 35 33 32 30 29 28 30 35 39 36 35 33 31 30 30 31 29 24 19 14 10 11 18 21 22 23 24 24 23 23 24 25 27 30 30 28 26 27 28 29 30 29 31 32 32 30 30 30 30 30 31 32 33 33 33 33 33 33 33 34 35 37 39 40 40 41 42 42 42 41 41 42 42 43 44 45 46 46
43 42 43 43 44 44 44 43 43 43 43 43 42 41 39 38 37 37 36 36 36 35 33 34 34 35 35 33 32 31 30 29 33 37 36 35 35 34 33 32 30 26 22 19 18 18 21 24 24 23 22 25 24 23 23 25 25 26 30 28 26 25 26 27 27 28 28 29 31 32 32 32 31 30 30 31 31 32 32 33 33 33 33 33 33 34 33 35 36 37 38 38 40 42 42 42 42 43 44 45 46 46 46
43 42 42 43 43 43 43 43 42 42 42 42 41 40 39 39 38 37 37 36 35 34 35 35 35 35 35 35 34 33 31 29 29 32 36 35 35 35 34 33 32 29 26 24 25 26 27 28 26 23 21 24 25 24 25 26 26 26 27 26 26 26 27 27 26 27 27 28 29 30 32 32 32 30 30 30 31 32 32 33 33 33 33 33 33 33 32 33 35 36 37 38 38 40 43 42 42 43 44 45 46 46 47
42 42 42 42 43 43 42 42 42 42 42 42 41 40 39 38 38 37 36 35 34 34 34 35 35 34 34 35 35 34 31 28 28 29 32 34 36 35 34 35 34 33 32 31 30 30 29 28 27 25 23 23 24 26 29 27 26 27 27 27 27 27 26 25 25 25 27 28 28 29 30 30 29 28 28 28 30 32 32 33 33 33 33 33 33 33 33 34 37 39 37 39 40 41 42 42 42 43 44 45 46 46 47
42 42 42 42 42 42 42 42 42 42 41 42 41 39 39 38 37 36 35 33 33 34 35 35 35 35 34 35 35 34 31 29 28 28 29 31 33 35 34 34 33 33 33 33 32 32 31 29 28 27 27 24 23 24 27 28 28 27 27 28 28 28 26 24 24 24 25 28 28 28 28 27 27 28 28 28 29 30 30 31 32 33 32 33 33 33 34 38 40 40 40 41 42 42 41 41 42 43 44 45 46 46 46
42 42 42 42 42 42 42 42 41 41 41 41 41 39 38 37 37 36 35 33 34 36 35 35 35 35 35 34 34 33 31 30 29 30 29 28 29 31 32 30 29 28 28 29 30 31 31 30 30 29 29 27 25 24 24 26 28 28 28 28 27 26 25 24 24 26 26 28 28 27 26 26 27 27 27 27 27 28 29 29 30 31 31 32 33 33 35 36 37 38 39 41 42 42 40 41 42 42 43 45 45 46 46
42 42 42 42 42 42 42 41 41 41 41 42 41 39 38 37 36 35 35 34 34 35 35 36 36 36 35 35 35 34 33 32 31 31 30 29 28 29 31 29 28 27 28 27 28 28 29 30 31 31 30 29 28 26 25 25 26 26 26 26 26 25 25 25 26 27 27 27 26 26 26 26 26 26 25 26 26 27 28 28 29 30 31 32 32 33 34 34 34 34 35 37 40 42 40 40 41 42 43 44 44 45 45